User: anonymous
Location: Unspecified
(0.0000°N, 0.0000°E)
Time: 13:10:56
(UTC+02:00)
Language:

Cosmos 494 Rocket - Orbit

View from above orbital plane
View from above orbital plane
View from above satellite
View from above satellite

Ground track
Ground track

The orbit data is extracted from the following two-line orbital elements,

1 06061U 72043B   14205.96196926  .00000035  00000-0  19292-4 0  4821
2 06061 074.0599 334.2173 0020299 007.7944 131.3930 14.40160253205952
Epoch (UTC): 24 July 2014 23:05:14
Eccentricity: 0.0020299
inclination: 74.0599°
perigee height: 743 km
apogee height: 772 km
right ascension of ascending node: 334.2173°
argument of perigee: 7.7944°
revolutions per day: 14.40160253
mean anomaly at epoch: 131.3930°
orbit number at epoch: 20595

The dashed part of the orbit path shows where the satellite is in the earth's shadow,  

DLR